Theta_e
316 315 314 314 313 313 313 312 312 311 311 311 311 310 310 310 309 308 308 308 307 307 306 306 306 306 306 306 306 306 306 306 307 307 308 308 310 311 313 314 315 317 319 320 321 322 322 323 325 327 328 327 328 329 329 330 329 328 328 329 330 331 330 329 329 329 328 326 327 325 325 325 324 324 322 320 320 316 314 319 321 319 318 315 312
316 314 314 313 313 313 313 312 312 311 311 311 310 310 310 309 309 308 307 307 306 306 305 305 305 305 305 305 305 305 305 305 306 306 307 307 308 309 311 312 314 316 318 319 320 321 321 322 322 324 326 326 328 329 329 329 330 329 329 329 329 329 329 329 329 329 328 327 327 326 324 324 323 322 320 318 315 310 309 315 317 314 314 313 311
315 314 314 314 313 313 312 312 311 311 311 311 310 310 309 309 308 308 307 307 306 306 305 305 305 305 304 304 305 305 305 305 305 306 306 307 307 308 309 310 312 313 315 317 319 320 321 321 321 322 324 325 327 328 329 328 329 329 329 329 329 327 327 329 330 329 328 327 326 325 324 323 322 320 317 315 311 307 307 311 310 308 307 308 307
314 314 314 313 313 313 312 311 311 311 311 310 310 310 309 309 308 307 307 306 306 305 305 305 305 304 304 304 304 304 304 305 305 305 305 306 306 307 307 309 310 311 313 314 316 318 320 321 321 321 322 323 325 327 328 329 329 329 329 330 330 327 327 328 329 329 329 328 326 324 323 322 320 318 315 312 309 307 306 306 304 303 303 302 302
314 313 313 313 313 312 312 311 310 311 310 310 310 309 309 308 308 307 306 306 306 305 305 305 305 305 305 304 304 304 304 304 304 304 305 305 306 306 306 307 308 310 311 312 314 316 318 320 321 321 321 322 323 324 327 329 328 329 329 329 331 330 329 329 329 329 328 329 327 324 323 322 319 316 313 310 308 306 305 304 302 302 301 300 299
314 313 312 313 313 312 311 311 310 310 310 310 309 308 308 307 307 306 306 305 305 305 305 305 305 305 305 304 304 304 304 304 304 304 304 304 305 305 306 306 307 308 309 311 312 313 315 317 319 321 321 322 322 322 324 326 327 329 330 329 329 329 330 330 329 328 328 329 327 324 323 322 318 314 312 308 307 305 304 303 302 301 300 299 298
313 313 312 312 311 311 310 310 310 310 309 308 308 307 307 306 306 306 305 305 305 304 305 305 305 305 305 304 304 304 304 303 303 303 303 303 303 304 305 305 306 307 308 309 310 312 314 315 317 319 320 321 322 322 323 324 326 329 330 329 327 328 330 331 329 329 328 328 327 325 324 321 316 313 311 309 307 306 304 303 301 300 299 299 298
313 312 312 311 310 309 310 309 309 309 308 307 307 306 306 305 305 304 304 304 304 304 304 304 304 304 304 304 304 303 303 303 303 303 303 303 303 303 304 304 304 305 306 307 309 311 312 314 316 317 319 320 321 322 322 323 325 327 330 330 329 329 330 330 330 329 328 327 327 325 322 318 314 312 311 309 308 306 305 304 302 300 300 299 298
312 312 311 310 309 310 310 309 308 308 307 307 306 306 305 304 304 304 303 304 304 304 304 304 304 304 303 303 303 303 303 303 303 302 303 303 303 303 303 304 304 304 305 306 307 309 311 313 315 316 317 318 320 321 322 322 323 325 328 331 332 330 330 330 331 329 328 328 327 324 320 317 314 312 311 309 308 306 305 304 303 302 300 299 297
311 310 309 309 310 309 309 308 307 307 307 306 306 305 304 304 303 303 303 303 303 304 303 304 304 303 303 303 303 303 303 303 302 302 302 302 302 303 303 303 304 304 305 305 306 308 309 311 313 315 316 317 318 319 320 321 322 323 325 329 331 331 330 330 331 330 328 327 326 323 320 317 315 313 311 310 309 307 305 305 304 303 301 299 298
310 309 309 309 309 309 308 307 307 306 306 305 305 304 303 303 303 303 303 303 303 303 303 303 303 303 303 303 303 302 302 302 302 302 301 301 301 301 302 302 303 304 304 305 306 307 308 310 312 314 315 316 318 318 318 319 320 321 322 325 329 330 329 329 330 330 329 327 326 323 320 318 316 313 311 310 309 307 306 306 305 303 301 300 299
309 309 309 309 308 308 307 307 306 306 305 304 304 303 303 303 302 302 302 302 302 301 302 302 302 302 302 302 302 302 302 302 302 301 301 300 300 300 300 300 301 302 303 304 305 307 308 309 310 313 315 316 317 318 318 318 319 320 320 322 326 328 328 329 331 330 328 327 327 324 321 319 317 313 311 309 308 307 308 308 305 304 303 302 302
308 308 309 308 308 307 306 306 306 305 305 304 303 303 302 302 302 301 301 301 301 300 301 300 300 300 301 300 301 301 301 301 301 301 300 300 300 299 299 299 300 300 301 302 303 306 307 308 310 312 314 316 317 318 319 319 319 320 319 321 324 327 327 329 331 329 327 328 327 325 323 320 317 313 312 311 309 308 308 308 306 305 304 305 305
308 308 308 308 307 306 306 306 305 304 304 303 303 302 302 301 301 301 301 300 300 300 300 299 299 299 299 299 299 299 300 300 300 300 300 299 299 299 299 299 299 299 300 300 301 303 305 307 310 311 313 316 317 318 319 320 321 322 321 320 323 326 326 327 329 328 328 328 328 326 323 321 318 315 314 313 311 310 309 309 308 306 306 307 306
308 308 308 307 306 306 305 305 304 304 303 302 302 302 301 301 301 301 300 300 300 299 299 299 299 298 298 298 298 298 298 299 299 299 299 298 298 298 298 298 298 299 299 299 300 301 303 305 308 310 313 315 317 318 319 320 321 323 323 321 321 325 326 326 328 328 327 328 327 325 323 321 319 318 316 314 313 311 311 310 309 307 307 306 304
308 308 307 306 305 305 305 305 304 303 303 302 302 301 301 301 300 300 300 299 299 299 299 299 299 298 298 298 298 298 298 298 297 298 298 298 298 297 297 298 298 298 299 299 299 300 301 303 305 308 311 314 316 318 319 320 321 321 324 324 324 325 326 326 327 328 327 327 327 325 323 321 320 320 317 314 313 312 311 310 308 307 305 303 301
307 307 306 305 305 305 304 304 303 303 302 302 301 301 301 300 300 300 299 299 299 299 299 299 298 298 298 298 298 298 297 297 297 297 297 297 297 297 297 297 298 298 298 299 299 299 300 301 303 305 309 312 314 317 318 319 321 321 322 325 326 326 326 326 326 327 327 327 326 325 324 322 321 320 317 314 314 313 311 308 306 305 304 302 300
306 306 305 304 304 304 304 303 303 302 302 301 301 301 300 300 299 299 299 299 298 298 298 298 298 297 297 297 297 297 297 297 296 296 296 296 296 296 297 297 297 298 298 299 299 299 300 300 301 303 307 310 313 316 318 319 320 321 321 323 325 324 323 323 323 324 325 324 324 324 324 323 322 320 317 316 315 315 313 309 306 305 304 303 301
305 304 303 303 303 303 303 303 302 302 302 301 301 300 300 299 299 299 298 298 298 298 297 297 297 297 296 296 296 296 296 296 296 296 296 295 296 296 296 297 297 298 298 299 299 299 300 301 301 302 304 307 311 314 316 318 319 321 321 323 323 321 320 320 321 321 321 321 322 322 322 320 319 318 316 315 314 313 313 312 308 306 305 303 302
304 303 302 302 302 303 303 303 302 302 301 301 300 300 299 299 299 298 298 297 297 297 297 296 296 296 296 295 295 295 295 295 295 296 296 296 296 296 296 296 297 297 298 299 299 300 300 301 302 302 303 305 307 311 314 316 318 320 321 323 323 319 317 318 319 319 320 320 319 318 317 316 316 315 313 312 311 310 310 311 309 307 306 304 302
302 302 302 302 302 302 302 302 302 302 301 300 299 299 299 298 298 298 297 297 297 296 296 296 295 295 295 294 294 294 295 295 295 295 296 296 296 296 296 296 297 297 298 299 299 300 301 301 303 303 304 305 306 307 310 313 315 317 320 323 322 319 317 316 317 318 318 317 315 313 313 312 311 311 310 309 309 309 309 309 308 307 306 304 302
302 301 302 301 302 302 302 302 301 301 300 300 299 298 298 298 298 297 296 296 296 295 295 295 295 294 294 294 294 294 295 295 295 295 296 296 295 295 295 296 296 297 298 299 299 300 301 302 303 304 305 306 307 307 309 310 312 315 319 322 321 318 317 316 315 314 314 313 311 309 309 308 307 307 306 306 307 307 307 307 306 306 305 304 303
301 301 301 301 301 302 302 301 301 300 300 299 299 298 298 298 297 297 296 296 295 294 294 294 294 293 293 293 293 294 294 295 295 295 295 295 295 295 295 295 295 297 298 299 300 300 302 303 304 305 307 307 308 309 309 310 311 314 318 321 320 317 316 314 312 312 310 309 307 306 305 304 304 304 304 304 304 304 304 304 304 304 303 302 302
301 301 301 301 301 301 301 300 300 300 299 299 298 298 298 297 297 296 296 295 295 294 294 293 293 293 293 293 293 293 293 294 295 295 295 295 295 295 295 295 295 296 298 299 299 300 302 304 304 306 308 310 310 311 311 311 313 316 319 320 318 315 313 311 310 309 307 305 304 303 301 301 301 301 301 301 301 302 302 301 301 300 300 300 300
302 301 301 300 300 300 300 300 299 299 298 298 298 297 297 297 296 296 295 295 294 294 293 293 293 292 292 292 292 292 293 293 294 294 295 295 296 296 296 297 297 296 297 298 299 300 302 304 306 308 310 312 313 314 314 314 315 317 318 318 315 313 311 309 307 306 305 303 301 301 300 299 299 299 299 299 299 299 298 298 297 296 296 297 297
301 301 300 300 300 300 299 299 298 298 298 298 298 297 297 297 296 295 295 295 294 294 293 293 292 291 291 292 292 292 293 293 293 293 294 295 295 295 296 298 298 298 297 298 299 299 300 303 307 310 312 313 315 316 315 315 315 317 317 315 312 310 309 307 305 304 302 301 300 299 298 298 297 296 296 297 296 296 295 295 294 294 294 293 293
301 301 300 300 299 299 298 298 298 297 298 298 297 297 297 296 296 295 295 294 293 293 293 292 292 291 291 291 291 291 291 292 292 292 292 292 293 294 295 298 299 299 298 298 299 299 300 303 307 311 312 312 313 313 313 312 313 314 313 311 309 309 309 307 306 304 302 299 298 297 296 296 295 294 295 295 294 294 294 294 293 292 292 291 290
301 300 300 300 299 298 298 298 298 298 297 297 297 297 297 296 296 295 294 294 293 292 292 292 291 291 290 290 290 290 291 291 291 291 291 291 292 293 295 298 299 298 299 299 299 300 302 304 306 308 308 308 307 307 307 307 309 309 307 306 306 307 306 305 304 303 300 298 297 295 294 294 293 293 293 293 293 292 293 293 291 290 290 290 289
301 300 300 300 299 298 298 299 298 298 297 297 297 297 296 296 295 295 294 293 293 292 291 291 291 290 290 289 289 290 290 290 290 290 290 291 293 294 295 298 299 299 299 300 300 301 302 303 302 303 303 303 302 301 302 302 303 303 303 304 304 303 302 302 300 299 297 296 295 293 293 292 292 292 292 291 291 291 292 291 290 289 289 289 289
301 301 300 300 299 299 299 299 299 298 298 297 297 296 296 295 295 294 294 293 292 292 291 291 290 290 289 289 289 289 289 289 290 290 291 292 294 295 296 298 300 300 300 301 301 301 300 300 300 300 300 300 299 299 299 299 300 300 300 301 301 300 300 299 297 296 295 295 293 292 292 291 291 291 291 290 290 291 291 290 290 289 289 290 290
301 301 301 300 299 298 299 299 299 298 298 297 296 296 296 296 295 294 294 293 292 292 291 291 290 290 289 289 289 289 289 289 290 291 291 292 294 295 297 299 300 299 300 301 301 300 299 298 298 298 298 298 298 297 297 298 298 297 298 298 298 298 297 296 295 294 293 293 292 292 291 291 291 291 290 290 290 290 290 290 290 290 290 290 290
302 301 301 300 299 299 299 299 299 298 298 297 297 296 296 296 295 294 294 293 293 292 291 291 290 290 289 289 289 289 289 290 291 291 291 291 292 294 296 298 298 298 298 299 299 298 298 297 297 296 297 297 297 297 297 296 296 296 296 296 295 294 294 294 293 292 292 292 291 291 291 291 291 290 290 290 290 290 290 291 291 291 290 290 290
302 301 301 301 300 300 300 299 299 299 298 297 297 296 295 295 295 294 294 293 293 292 292 291 290 290 289 289 289 289 289 290 290 291 292 292 292 293 294 295 296 297 297 298 297 297 297 297 296 296 296 297 296 296 296 296 296 295 295 294 293 293 293 292 292 291 291 291 291 290 290 290 290 290 290 290 290 290 290 290 290 290 291 290 290
301 300 299 299 300 300 300 299 299 298 298 297 296 296 295 295 295 294 294 293 292 292 292 291 290 290 289 289 289 289 289 289 290 291 292 292 292 292 293 294 295 295 296 296 296 296 297 296 296 296 296 295 295 295 295 295 295 294 294 293 292 292 291 291 291 291 291 291 290 290 290 290 289 289 290 290 290 290 290 290 290 290 290 290 290
300 299 298 299 299 300 300 299 299 298 297 296 297 296 296 295 295 295 294 293 292 292 292 291 290 290 289 289 289 289 289 289 290 290 291 292 292 293 293 293 293 293 294 295 295 295 296 295 295 295 295 294 294 294 295 294 293 293 292 292 291 291 290 290 290 290 290 290 289 289 289 289 289 289 290 289 289 289 289 290 290 290 290 290 290
300 300 299 300 300 300 300 300 299 298 297 296 296 297 296 295 295 295 295 294 292 292 292 291 290 290 290 289 289 289 289 289 289 290 290 290 291 292 292 291 291 292 292 293 293 294 294 294 294 294 294 294 294 293 293 293 292 292 291 291 290 290 290 290 290 289 289 289 289 289 289 289 289 289 289 289 289 289 289 289 289 289 289 289 290
300 301 300 300 300 300 300 300 299 298 296 296 297 297 296 295 295 295 295 294 293 292 291 291 290 290 290 289 289 289 289 289 289 289 289 289 290 290 290 290 290 291 291 291 292 292 292 293 293 293 293 292 292 292 291 291 291 290 290 290 290 289 289 289 289 289 288 288 288 288 289 289 289 289 289 289 289 289 289 289 289 289 289 289 290
300 300 299 299 299 299 299 299 299 298 297 297 297 297 296 295 295 295 295 294 293 292 291 291 290 290 290 289 289 289 289 289 289 289 289 289 289 289 289 289 289 289 290 290 290 290 291 291 291 291 291 291 291 290 290 290 290 289 289 289 289 288 288 288 288 288 288 288 288 288 289 289 289 289 289 289 289 289 289 288 288 288 289 289 290
300 299 297 297 297 297 298 298 298 298 298 297 297 297 296 295 295 295 294 294 293 292 291 291 290 290 290 289 289 289 289 289 289 289 289 289 289 289 289 289 289 289 289 289 289 289 289 290 290 290 290 290 289 289 289 289 289 288 288 288 288 288 288 288 288 288 288 288 288 288 288 288 289 289 289 288 288 288 288 288 288 288 289 289 289
300 299 297 296 296 297 298 298 299 299 298 297 297 297 296 295 295 295 294 294 293 293 292 291 290 290 290 289 289 289 289 289 289 289 289 289 289 289 289 289 288 288 288 288 288 288 288 288 289 289 288 288 288 288 288 288 288 288 288 288 288 288 288 288 288 288 288 288 288 288 288 288 288 288 288 287 287 287 287 288 288 288 288 288 288
300 300 299 297 298 298 298 299 299 299 299 298 297 296 296 295 295 295 295 294 293 293 293 291 290 290 290 290 290 290 289 289 289 289 289 289 288 288 288 288 288 288 287 287 288 288 288 288 288 288 288 288 287 287 287 287 287 287 287 287 288 288 288 288 287 288 288 288 288 288 288 287 287 287 287 287 287 287 287 288 287 288 288 288 288
301 301 300 299 299 299 299 299 299 299 299 298 297 296 296 295 295 295 295 294 294 293 293 292 291 290 290 290 290 290 289 289 289 289 289 289 288 288 288 288 287 287 287 287 287 287 287 287 287 287 287 287 287 287 287 287 287 287 287 287 287 287 287 287 287 288 288 287 287 287 287 287 286 286 287 287 287 287 287 287 287 287 288 288 288
300 301 300 300 300 300 299 299 299 299 299 298 296 296 296 296 295 295 295 294 294 293 293 292 292 291 290 290 290 290 290 289 289 289 289 289 288 288 288 288 287 287 287 287 287 287 287 287 287 287 287 287 287 287 287 287 287 287 287 287 287 287 287 287 287 287 287 287 287 286 286 286 286 286 287 287 287 286 286 286 287 287 287 287 287
301 301 301 301 301 300 299 299 299 299 298 297 296 296 297 296 295 294 294 294 294 294 293 293 292 291 291 290 290 290 290 290 289 289 289 289 289 288 288 288 287 287 287 287 287 286 287 287 286 287 286 286 286 286 286 286 286 286 287 287 287 287 287 287 287 287 286 286 286 286 286 286 286 286 286 286 286 286 286 286 286 286 286 287 287
302 301 301 301 300 300 300 299 299 299 298 298 297 297 297 296 295 295 295 295 295 294 294 293 293 292 292 291 290 290 290 290 289 289 289 289 289 288 288 288 288 288 287 287 287 287 286 286 286 286 286 286 286 286 286 286 286 286 286 286 286 286 286 286 286 286 286 285 285 285 286 286 286 286 286 286 286 286 286 286 286 286 287 287 287
301 301 301 300 300 300 300 300 300 299 299 299 298 298 297 296 296 296 296 296 295 295 295 294 294 293 292 292 291 290 290 290 289 289 289 289 289 289 289 288 288 288 288 288 288 287 287 287 286 286 286 286 286 286 286 286 285 285 285 285 285 285 286 286 286 285 285 285 285 285 286 286 286 286 286 286 286 286 286 286 286 287 286 286 286
301 301 301 301 300 300 300 300 299 299 299 298 298 297 297 297 297 297 296 296 296 296 295 295 294 294 293 293 292 291 290 290 290 290 290 289 290 290 289 289 289 289 289 289 289 288 288 288 287 287 286 286 286 286 286 286 286 286 286 286 285 285 284 285 285 285 285 285 285 285 285 286 286 286 286 286 286 286 286 286 286 286 286 286 286
300 301 301 301 301 300 300 300 299 299 299 298 297 297 298 298 297 297 297 297 297 296 296 296 295 295 294 294 293 292 291 291 290 290 290 290 290 290 290 290 289 289 289 289 289 289 289 288 288 287 287 287 287 287 287 287 287 287 286 286 286 286 286 286 286 285 285 285 285 285 285 285 286 286 286 286 286 286 286 286 285 285 285 285 286
300 300 300 301 300 300 300 300 300 300 300 299 298 297 298 298 298 297 298 297 297 297 297 297 296 296 295 294 294 294 293 292 291 290 290 290 290 290 290 290 290 289 289 289 289 290 290 289 289 288 288 288 288 288 288 288 288 289 289 289 289 289 288 287 286 285 285 285 285 285 285 286 285 285 285 285 286 286 286 285 285 285 285 285 285
299 300 299 299 300 300 299 299 299 299 299 299 299 298 298 298 298 298 298 298 298 298 298 297 297 297 296 295 295 294 294 293 292 291 291 290 290 290 291 291 291 290 290 289 289 289 290 290 290 290 289 289 290 290 290 290 290 290 290 289 289 288 286 285 285 285 285 285 285 285 285 285 285 285 285 286 286 286 286 285 285 285 285 285 285
299 299 299 299 299 299 299 298 298 298 298 297 298 298 298 298 298 298 298 298 298 298 298 298 298 297 297 296 295 295 294 294 294 293 291 291 290 290 291 291 291 291 290 290 289 289 289 290 290 290 290 291 291 291 290 290 289 288 288 287 286 285 285 284 284 285 285 285 285 286 286 286 286 286 286 286 285 285 285 285 285 285 285 285 286
Wind_Speed
18 17 16 14 13 13 12 10 10 9 9 9 9 9 10 10 10 11 12 13 14 15 16 16 17 17 17 18 19 20 20 20 20 19 20 20 20 22 21 22 23 24 25 26 26 26 27 27 28 30 32 33 34 33 31 31 35 38 37 36 35 30 29 27 17 13 22 18 18 21 23 28 26 23 21 21 23 21 21 29 33 32 32 30 28
18 17 16 15 14 13 11 10 10 9 9 10 10 11 11 11 12 12 13 15 17 18 18 18 18 18 19 19 20 21 21 21 21 20 21 21 21 22 22 22 23 24 25 26 27 27 27 28 28 28 30 31 32 32 32 32 30 31 32 33 36 35 30 29 24 15 19 17 13 17 19 24 24 23 23 24 27 23 23 29 30 29 30 30 30
18 16 15 14 14 12 11 10 10 10 10 10 11 11 12 12 13 13 15 17 19 20 20 20 20 20 21 21 21 21 22 22 22 22 22 22 23 22 22 23 23 24 25 26 26 27 28 29 29 29 29 29 31 32 33 35 32 30 30 30 35 41 36 31 28 20 18 16 13 20 20 21 22 24 25 26 27 24 24 28 27 27 28 30 31
17 16 15 14 13 12 11 10 10 10 10 10 11 11 12 12 14 15 16 17 19 21 21 21 22 22 23 23 23 23 23 23 23 23 23 24 24 24 24 24 25 25 26 26 26 27 28 29 29 29 30 30 32 32 31 35 35 32 32 31 33 41 42 37 33 27 21 16 15 23 23 22 23 26 27 26 26 24 24 25 24 24 27 28 29
16 16 15 14 13 12 11 10 10 10 10 10 10 11 12 13 14 15 16 17 20 21 22 22 23 23 24 24 24 25 25 25 25 24 25 25 25 26 25 25 26 26 27 27 27 28 28 29 30 30 30 30 31 32 31 32 33 32 34 35 33 36 40 39 35 31 27 20 16 22 24 23 22 25 28 28 26 24 22 22 21 22 24 24 26
16 15 14 13 12 11 10 10 9 9 10 10 10 11 12 13 14 15 16 19 21 21 22 23 23 24 26 26 26 26 26 26 26 26 26 26 26 27 27 28 27 27 28 28 28 29 29 29 31 31 31 31 31 32 32 32 33 32 34 40 40 36 37 37 34 32 29 22 19 22 24 24 23 23 26 28 30 28 24 22 19 20 24 24 25
15 14 13 12 11 10 10 9 9 9 9 9 10 11 12 13 14 16 18 20 21 22 22 23 24 25 26 27 27 28 28 27 27 27 27 27 27 27 28 29 29 29 29 29 29 30 31 31 31 32 33 34 33 32 32 32 32 32 33 37 40 36 33 33 34 35 31 24 22 23 23 25 25 24 24 26 27 27 28 26 21 20 24 26 27
15 14 13 11 10 9 9 9 8 9 9 9 10 11 12 14 15 17 19 20 21 22 22 24 25 25 26 27 27 27 28 28 28 28 28 28 28 29 29 30 30 30 30 30 30 30 32 32 33 34 35 36 35 33 32 32 31 31 32 33 33 33 30 30 33 35 32 28 25 24 24 24 23 23 25 25 23 23 27 29 27 24 23 24 27
15 13 12 11 10 9 9 8 8 9 9 10 10 12 14 15 17 19 20 20 22 23 23 24 25 26 27 27 27 28 29 29 29 29 28 27 27 28 29 30 30 30 30 31 31 31 32 32 33 35 38 39 39 37 36 35 33 31 30 29 31 34 31 28 29 32 33 30 25 24 24 23 23 25 26 26 26 27 29 29 27 24 23 21 22
14 13 12 11 10 9 8 8 8 9 9 9 11 13 15 17 18 19 20 21 22 23 24 25 26 27 28 28 29 30 31 31 31 31 30 30 29 28 28 29 29 30 30 31 31 32 32 32 33 36 39 41 43 43 42 40 39 37 32 29 31 36 35 29 27 31 32 26 23 24 24 23 25 28 28 29 30 31 31 29 25 23 23 20 17
14 12 11 10 9 9 8 8 8 9 8 10 12 14 16 17 18 19 20 21 22 23 24 25 26 27 28 29 30 32 33 33 33 33 33 33 33 32 31 30 29 29 30 31 31 31 32 32 33 34 37 40 43 45 46 45 45 43 39 35 33 36 39 34 31 32 29 23 24 26 24 23 26 28 30 32 32 32 33 30 27 26 25 21 17
13 11 10 9 8 7 7 7 8 8 9 12 14 15 16 17 18 20 21 22 23 23 24 25 25 26 28 29 31 32 34 34 34 35 35 35 35 35 34 33 32 31 31 31 31 31 31 31 32 32 34 37 39 41 43 46 48 48 45 41 37 38 39 36 34 35 31 24 24 25 24 26 26 26 31 35 33 33 32 28 27 28 25 23 20
12 11 9 8 7 6 7 7 7 8 10 13 15 15 16 18 19 20 21 22 24 24 25 26 26 27 28 29 31 32 33 34 35 36 36 37 37 37 37 37 35 34 33 33 32 32 31 31 31 31 32 34 36 37 38 40 44 48 48 44 40 39 41 39 36 38 38 33 30 29 27 28 28 31 39 42 37 34 31 26 26 27 24 23 21
11 9 8 7 6 6 6 7 8 9 10 13 15 16 18 19 20 20 21 22 25 25 26 27 27 27 28 29 30 31 32 33 34 35 35 36 36 37 38 38 38 38 36 35 35 34 33 32 31 31 32 32 33 35 36 36 36 40 45 47 45 41 42 43 40 39 40 37 33 32 31 31 33 38 43 44 41 38 36 32 30 27 23 21 18
10 9 7 6 6 6 6 7 9 9 10 13 15 17 19 20 21 21 21 23 25 26 26 27 27 28 29 29 31 32 32 32 34 34 36 36 35 37 37 36 39 41 39 37 37 37 36 35 34 33 32 32 33 34 35 35 33 33 36 42 46 43 41 44 44 42 40 35 31 32 33 34 37 40 43 44 41 39 37 36 33 30 25 21 18
9 8 7 6 6 6 7 8 9 10 10 13 16 19 20 20 21 21 23 25 26 26 26 27 27 29 30 30 32 34 34 34 35 35 36 37 37 39 38 36 38 41 41 39 38 37 37 37 36 35 34 33 34 35 35 35 35 33 30 32 38 41 40 41 44 44 43 40 37 36 34 33 36 39 43 44 40 36 33 30 31 32 28 22 18
8 7 6 6 5 5 7 8 9 10 11 14 17 19 20 20 21 22 23 25 25 26 26 27 27 29 30 30 32 34 35 35 35 36 36 36 37 37 36 36 36 38 39 39 38 37 38 38 37 36 35 35 36 36 35 36 36 36 32 28 29 33 34 35 38 39 39 38 38 39 38 36 36 39 42 44 43 40 36 32 33 35 30 20 13
7 6 5 4 4 5 7 8 10 12 13 15 17 19 20 20 21 21 23 25 26 26 26 27 27 28 29 31 32 34 37 37 37 37 37 37 38 36 34 34 36 36 36 37 37 37 38 39 39 39 38 36 36 36 36 36 35 36 34 28 24 26 29 30 31 31 31 28 29 33 36 37 38 40 42 44 44 44 41 38 38 36 29 19 15
5 4 3 3 4 5 7 8 10 12 13 14 17 19 20 20 20 21 23 25 26 26 26 27 28 29 30 32 33 34 37 37 37 38 38 38 39 38 35 34 35 35 35 35 36 36 37 38 40 43 44 41 38 37 36 35 33 35 34 27 20 23 28 30 30 29 28 26 26 28 30 33 36 39 41 42 42 41 40 39 40 37 28 20 20
3 2 2 2 4 5 7 8 10 11 12 14 15 17 19 20 20 22 24 25 25 25 26 27 30 31 30 31 32 33 35 37 37 36 37 36 37 37 36 35 33 33 34 34 34 35 36 36 37 41 46 47 44 43 40 35 30 32 34 29 21 21 26 31 31 31 31 29 29 29 29 32 35 38 40 40 39 38 35 35 37 36 29 25 25
3 2 2 3 4 5 7 8 9 10 12 12 14 16 18 19 20 22 23 24 24 26 27 28 30 30 29 30 32 33 35 37 36 36 36 36 36 36 38 38 36 33 33 33 33 34 34 34 34 36 40 44 46 47 48 43 35 33 36 32 25 24 28 32 31 32 32 31 30 29 30 31 33 35 38 37 37 36 33 32 33 30 27 27 27
3 2 2 3 4 5 7 8 9 10 11 11 13 15 16 17 20 22 22 23 24 26 27 27 28 29 29 30 31 32 33 34 34 34 34 35 36 37 39 41 39 35 33 31 32 34 33 32 32 33 35 39 41 44 50 50 43 38 36 31 27 27 31 35 33 32 32 31 31 30 30 31 32 33 34 33 34 33 30 29 30 26 24 25 25
3 2 2 4 5 6 7 8 9 10 11 11 13 15 15 15 19 22 21 22 24 25 25 26 26 28 30 30 29 29 30 31 31 32 33 34 36 38 39 41 41 38 35 32 32 33 32 30 31 32 34 37 39 40 45 48 45 40 34 29 30 31 34 36 36 35 33 31 31 30 29 31 31 31 31 30 29 29 27 28 28 24 22 21 20
3 2 3 4 5 6 7 8 9 10 11 12 13 15 15 16 19 21 21 21 23 23 24 25 26 27 29 29 28 28 29 29 29 30 32 34 35 36 38 40 41 40 38 36 33 32 30 29 31 34 35 37 38 39 41 43 41 37 32 30 32 33 36 37 37 36 34 31 29 27 26 28 29 29 30 30 30 30 29 28 25 21 21 21 18
3 1 2 3 4 6 7 8 9 11 12 13 13 14 15 17 19 20 21 21 22 23 23 24 25 26 26 26 27 28 29 30 29 28 30 32 32 34 35 36 39 41 41 39 36 35 34 32 32 33 34 33 32 33 36 40 39 34 31 33 35 36 38 38 38 38 35 29 27 26 26 26 28 29 31 33 35 34 33 30 27 25 24 22 19
3 0 2 3 4 6 8 9 10 12 13 13 12 12 14 16 17 19 20 21 22 23 23 24 24 24 24 24 26 28 29 29 28 27 28 29 30 30 29 29 32 38 42 42 40 39 39 38 34 29 28 28 29 31 34 37 36 33 32 34 36 37 38 40 39 38 34 29 28 28 28 29 30 32 34 36 37 36 36 35 33 29 28 28 27
2 1 2 3 4 7 8 9 10 12 13 12 11 12 14 15 16 18 18 19 22 23 23 22 23 23 24 24 26 28 28 27 27 27 29 31 31 29 27 25 24 31 39 42 42 40 40 39 35 28 25 26 27 30 33 34 35 35 34 33 35 37 41 42 41 39 36 32 30 30 31 33 35 35 35 36 36 35 35 35 33 30 28 30 29
3 2 2 3 6 8 8 8 10 12 13 12 12 12 12 13 14 15 15 15 18 21 22 21 21 22 24 25 26 26 26 25 26 29 32 35 35 31 27 24 18 23 34 38 37 36 34 31 27 24 24 23 22 25 28 30 33 34 32 30 33 36 37 37 37 38 38 36 34 33 33 35 35 34 33 33 34 35 33 31 30 30 29 28 26
3 3 3 4 7 8 8 8 10 12 13 13 12 11 12 11 10 11 12 14 17 21 22 21 21 22 24 25 24 23 24 26 28 32 34 34 32 28 25 22 16 16 28 32 30 28 26 23 22 22 21 21 21 22 24 26 28 27 25 27 31 32 33 33 34 35 37 39 38 37 37 35 33 31 31 32 33 33 31 29 29 29 26 24 21
3 2 2 4 7 9 9 9 10 12 13 14 13 12 12 10 8 9 14 18 21 22 22 22 23 23 24 25 24 23 25 28 29 30 31 29 26 22 19 17 14 12 24 31 29 26 24 22 21 21 21 20 20 20 22 24 25 23 22 26 30 31 31 33 35 37 39 41 41 40 38 37 34 32 31 32 31 30 29 30 30 27 24 21 20
2 2 3 4 4 6 9 10 11 12 13 14 14 14 13 11 10 13 18 22 23 22 21 21 23 25 25 26 26 25 25 25 25 25 24 22 20 16 14 13 9 9 22 29 28 25 22 19 19 19 20 20 21 22 24 24 25 26 26 26 27 29 31 33 35 39 41 41 39 38 37 36 35 33 33 33 32 30 29 29 27 24 23 21 21
1 2 4 4 3 5 9 11 10 11 13 14 15 14 13 13 14 16 19 22 24 22 21 22 24 26 26 27 28 28 26 24 22 22 21 19 14 9 5 2 6 12 15 16 19 20 19 18 18 19 19 20 21 24 26 25 26 30 32 29 27 29 33 36 37 40 41 40 37 35 35 34 33 33 34 35 34 31 28 26 24 23 22 21 21
1 3 4 5 6 6 8 10 10 11 13 14 15 15 13 12 15 18 20 22 23 21 20 23 26 27 27 27 28 28 27 24 21 20 19 17 15 10 7 7 10 11 7 5 9 13 14 16 17 19 20 20 20 22 26 26 26 31 35 34 33 33 34 36 36 37 39 39 36 34 34 34 34 34 35 35 35 32 27 23 22 22 22 22 22
2 4 5 7 7 8 9 10 10 11 12 14 15 16 14 12 15 18 18 19 22 22 21 24 27 28 28 30 29 28 27 25 22 19 16 15 14 12 11 10 8 7 6 5 5 6 9 13 15 17 18 18 19 23 26 27 28 32 34 34 34 34 34 35 35 35 35 35 34 33 33 34 35 36 35 34 34 32 28 25 22 21 22 22 21
2 2 2 4 6 9 10 11 9 10 12 14 15 16 16 13 14 16 15 15 19 22 21 24 28 28 28 31 31 28 26 26 24 22 18 15 11 10 12 13 13 11 10 9 7 5 6 9 11 15 17 18 20 25 27 28 31 34 35 34 34 34 34 34 34 34 34 33 33 33 32 31 33 35 36 36 36 33 28 24 22 21 22 22 21
3 3 3 5 7 9 11 11 10 11 12 13 13 15 16 15 14 14 13 12 15 19 21 23 26 28 29 32 33 30 26 25 25 24 23 19 14 13 15 16 15 14 14 13 12 10 9 10 12 15 17 19 21 24 26 28 30 32 34 37 37 35 34 34 35 34 34 35 35 33 30 28 30 34 37 37 35 31 28 25 22 22 22 22 21
4 4 5 6 8 10 12 11 11 12 11 11 13 15 16 15 14 14 12 11 12 16 20 22 24 26 29 32 34 31 27 25 25 25 26 23 20 19 18 16 14 14 14 14 14 14 14 13 14 16 18 19 21 23 25 28 30 31 32 34 35 33 33 35 36 36 35 36 35 32 29 27 29 34 38 37 33 30 28 26 24 23 23 22 20
5 5 5 7 8 10 13 13 13 13 12 12 14 16 15 14 15 14 12 10 10 14 19 21 23 24 26 30 32 31 26 25 25 26 26 26 23 20 18 17 17 16 16 16 16 15 16 16 16 17 19 20 21 23 25 28 30 33 33 33 33 33 34 35 36 35 35 35 34 32 30 28 28 32 36 36 33 30 28 27 26 25 23 20 18
6 6 6 5 7 10 13 14 14 14 13 12 14 15 14 14 14 14 13 12 9 11 16 20 21 22 24 29 32 30 25 24 24 24 24 25 25 22 20 19 19 18 17 17 17 16 17 20 20 20 21 21 22 24 26 28 30 33 36 37 38 38 36 36 35 33 34 35 33 32 31 29 28 31 35 36 34 32 30 28 26 23 21 19 18
9 6 5 3 5 10 13 14 15 14 12 12 13 14 14 13 13 13 14 13 10 9 12 16 20 22 24 29 32 29 24 22 23 23 23 24 24 23 21 19 19 19 19 18 17 17 19 22 23 23 23 24 25 26 27 29 31 34 37 40 41 39 36 34 33 32 32 33 33 33 32 30 29 32 34 35 35 33 29 26 23 22 21 22 22
10 8 4 2 5 9 12 14 14 14 12 10 10 12 13 13 13 13 13 13 12 10 9 12 18 23 26 28 30 28 24 22 23 25 25 23 22 22 21 20 19 19 20 19 18 19 21 24 25 25 26 26 26 26 27 29 32 34 34 35 34 34 33 33 31 30 32 33 33 33 32 30 30 32 34 33 32 30 27 25 24 23 23 22 22
8 9 7 6 6 8 10 12 14 14 12 10 10 11 12 12 13 13 12 12 12 11 9 9 13 19 23 26 28 28 25 23 23 24 24 23 22 22 23 23 21 21 22 22 22 23 25 25 24 24 24 25 25 25 26 28 31 32 31 30 29 29 30 32 31 30 31 32 33 33 32 31 32 33 32 30 29 27 26 26 24 22 21 21 20
5 7 8 8 7 7 9 11 12 12 11 9 8 9 11 11 13 13 13 12 12 11 10 9 9 12 16 20 24 26 25 23 22 22 23 23 22 23 24 25 25 24 24 26 26 27 28 28 27 26 25 24 24 24 25 26 28 29 29 29 29 28 29 30 30 30 30 32 33 33 33 33 32 31 29 28 27 27 26 25 23 21 21 20 19
3 5 6 7 6 6 8 10 11 10 9 8 7 8 9 11 13 14 14 13 11 10 10 9 9 9 11 14 18 21 22 22 21 21 21 21 22 23 24 26 26 25 25 26 27 29 31 31 31 30 28 27 27 27 27 27 28 29 29 29 30 29 29 28 28 29 31 33 33 33 33 32 30 28 27 27 27 26 25 23 22 21 20 18 17
4 4 5 6 6 6 7 10 11 8 7 7 8 8 9 10 11 12 13 13 12 11 10 9 8 8 8 10 12 15 17 19 20 20 20 20 21 22 23 25 25 26 26 27 27 30 31 32 32 31 30 29 29 30 29 29 29 29 29 29 29 29 29 28 28 29 31 32 32 32 31 29 28 27 26 26 25 24 23 22 21 20 19 18 17
6 6 4 3 4 4 6 8 8 7 6 7 8 9 10 11 12 11 10 10 12 12 11 10 10 9 8 8 9 10 12 14 16 19 19 19 20 21 23 24 24 25 27 28 29 30 31 31 31 31 30 29 29 30 30 30 30 29 29 29 28 29 29 29 29 29 30 30 30 30 28 26 26 25 25 24 22 22 22 21 19 18 18 18 18
9 8 7 6 5 3 4 5 6 5 5 7 8 8 9 11 14 13 11 11 13 15 13 11 11 10 10 9 8 9 10 10 11 13 16 17 18 19 20 22 23 23 25 26 28 30 30 30 30 29 29 28 29 29 29 29 29 28 28 27 27 28 28 28 27 27 27 28 28 27 26 25 24 23 22 22 22 22 22 20 19 19 19 18 17
11 10 10 9 8 7 6 5 4 3 3 5 6 7 9 11 13 15 15 15 16 17 17 15 12 11 11 10 9 9 9 9 9 9 11 13 15 15 17 19 21 22 22 23 25 27 28 29 28 28 28 27 28 28 28 28 28 27 27 26 25 25 25 25 24 23 23 24 24 24 24 24 23 22 22 23 22 22 21 20 19 18 18 17 15
13 12 12 12 11 10 9 8 6 5 5 5 5 6 8 10 11 13 14 15 16 17 18 18 15 13 12 11 10 10 9 9 9 9 9 10 11 12 13 15 17 19 21 21 22 23 25 26 26 26 27 27 27 26 25 25 25 24 24 23 22 21 21 20 20 20 20 21 22 22 22 22 22 22 23 22 21 20 20 18 17 17 16 15 15
13 13 13 13 13 12 11 10 9 8 9 9 9 8 9 11 12 12 13 15 15 16 17 18 17 15 14 13 13 12 12 11 10 9 9 9 9 9 10 11 12 14 16 18 19 20 22 23 24 24 25 24 23 21 21 20 20 19 18 17 15 15 16 18 19 20 20 21 21 21 21 22 23 22 21 20 20 19 19 18 17 16 16 15 14
12 13 14 14 14 14 13 13 12 11 11 12 12 11 12 14 14 14 14 14 15 15 16 17 17 16 15 14 13 13 13 12 11 10 9 8 8 8 8 9 10 11 11 13 14 16 17 19 20 21 21 21 20 18 17 17 17 15 13 12 10 11 15 19 21 21 20 19 20 21 22 22 22 21 20 20 19 18 18 17 16 15 15 14 14
Wind_Direction
188 189 188 186 183 182 186 191 199 206 212 219 226 235 239 241 247 256 266 273 278 281 280 279 279 279 277 276 273 271 270 269 268 268 267 267 266 265 263 261 260 259 258 257 256 254 250 245 242 238 233 230 229 227 226 228 228 226 224 224 227 227 225 234 243 263 274 252 196 194 187 175 181 185 178 175 170 169 185 188 185 186 187 187 189
188 189 187 186 184 184 188 193 203 210 216 224 231 237 241 242 250 263 273 279 280 279 278 277 277 277 276 275 273 270 268 267 267 266 265 264 264 264 263 262 261 261 261 259 256 255 254 249 244 241 238 235 233 231 228 228 226 223 221 220 225 229 225 228 233 242 267 255 185 173 180 169 173 188 188 177 166 166 181 184 182 184 186 187 188
189 189 188 188 186 188 194 198 207 213 219 230 236 240 245 248 255 268 276 279 279 276 275 275 275 274 274 273 271 269 267 265 264 263 262 261 261 261 261 261 261 260 262 262 258 256 256 254 248 243 241 239 236 234 232 232 231 227 225 221 224 229 226 226 229 231 255 254 173 154 170 173 173 180 179 172 165 165 171 174 174 178 183 186 188
189 188 188 189 188 193 199 203 211 216 224 235 241 245 250 255 263 272 276 277 276 275 274 273 272 272 272 271 270 268 266 265 264 261 260 260 259 260 259 259 259 258 259 261 262 260 257 256 254 247 242 242 240 236 233 232 230 228 228 224 224 227 226 224 224 223 238 243 184 164 172 174 173 172 168 164 164 164 163 163 166 174 181 185 188
186 188 189 189 192 198 202 209 217 221 231 240 246 252 258 264 270 275 278 277 276 275 273 271 270 269 269 269 269 268 267 265 264 261 260 259 258 258 258 257 257 256 256 256 258 260 258 257 257 253 247 244 242 239 235 231 228 226 226 226 226 225 222 221 218 216 230 236 197 174 173 173 171 169 166 161 158 158 158 157 159 165 172 178 185
185 189 192 190 196 203 207 216 223 228 238 246 252 260 266 271 275 278 279 279 277 275 273 271 269 266 266 268 268 268 268 266 264 262 260 258 257 256 256 255 255 254 255 254 253 254 255 255 255 254 252 250 246 241 238 235 232 230 228 227 229 226 219 217 213 212 225 227 196 179 177 175 170 167 167 162 156 155 154 151 151 157 165 173 180
185 190 193 194 202 209 212 220 228 235 245 252 258 265 271 275 280 282 281 280 278 275 274 273 271 269 267 267 267 267 267 265 264 262 260 257 256 255 254 254 254 253 253 254 253 251 249 250 250 251 254 254 249 244 242 239 235 233 229 226 228 226 220 215 210 210 220 221 203 192 184 174 167 165 168 166 160 156 154 150 149 158 171 178 179
184 189 191 198 207 212 217 226 233 241 249 255 262 270 278 282 283 283 282 280 278 276 276 275 273 271 269 268 267 267 266 265 263 261 259 257 255 254 254 254 253 254 254 253 254 253 249 247 246 246 249 251 250 248 245 242 238 235 232 228 226 225 221 216 210 207 214 221 212 195 178 168 165 164 167 167 163 162 164 162 158 161 171 180 181
183 187 192 199 205 210 219 226 233 243 249 256 268 277 283 285 284 284 282 280 279 278 277 275 274 272 269 268 267 266 264 263 261 259 257 256 255 254 254 254 253 253 254 253 253 252 251 248 245 244 244 247 250 251 250 247 243 239 234 227 224 225 222 217 209 204 210 220 211 186 173 173 171 166 167 172 171 170 172 168 161 159 162 166 175
183 188 194 199 202 211 220 227 235 244 252 263 277 283 283 284 285 285 284 282 282 281 280 278 277 275 272 269 268 266 264 262 260 258 256 255 255 256 255 255 254 252 252 253 253 252 251 249 247 245 244 245 247 250 252 252 250 248 242 232 224 223 223 221 211 203 207 212 199 181 175 179 176 171 172 177 176 172 171 168 160 157 157 155 164
183 188 195 197 201 212 223 233 240 247 260 275 283 283 283 284 285 285 286 286 285 285 283 282 279 277 275 272 269 267 265 262 261 260 258 256 256 256 256 257 256 255 253 252 251 251 251 250 250 248 246 244 244 246 250 252 252 253 250 243 232 225 223 222 213 205 205 203 195 187 179 177 178 174 173 175 175 174 174 171 164 159 161 161 163
183 188 194 198 205 217 228 239 246 253 272 284 284 282 282 284 285 286 288 290 289 287 285 282 280 278 276 274 271 268 265 263 263 262 260 259 257 255 255 256 256 256 255 254 252 250 249 249 250 248 246 243 242 243 245 248 250 252 252 248 241 232 227 222 213 206 204 201 197 193 184 179 176 171 172 174 174 176 177 174 168 166 169 172 172
184 188 193 201 209 222 234 243 251 262 279 287 285 282 282 283 285 288 291 292 291 289 286 283 281 279 277 276 273 271 268 266 265 264 262 261 259 255 253 254 255 255 254 253 253 251 250 249 248 248 246 243 241 240 242 244 246 247 249 248 241 233 231 231 225 216 210 207 204 196 186 180 176 176 181 181 176 174 176 177 175 173 175 181 181
187 189 193 202 213 227 238 246 258 270 283 287 283 280 282 284 286 290 294 293 291 290 288 286 284 281 279 278 276 274 271 270 268 267 266 264 261 258 254 252 253 255 253 252 252 251 250 249 248 247 246 243 240 239 239 241 242 242 242 242 238 233 231 234 233 223 214 209 206 199 192 186 184 185 188 186 181 177 179 182 182 177 177 184 183
188 189 190 203 217 230 242 252 265 277 282 283 281 281 283 286 289 293 295 294 291 290 289 288 285 284 281 279 278 276 273 272 271 269 268 266 264 261 258 253 252 254 253 251 250 249 248 248 249 248 247 244 241 238 238 239 238 237 235 232 231 230 229 231 232 227 221 216 208 200 196 195 193 192 191 189 185 182 183 185 181 174 170 166 158
190 187 189 207 220 233 250 259 270 278 281 282 282 284 286 288 293 296 295 293 292 291 291 289 287 286 284 281 279 277 275 273 272 270 268 266 264 261 258 255 254 253 252 251 249 248 246 246 247 248 248 247 245 242 240 239 239 239 233 224 223 224 224 227 230 228 226 224 217 207 200 197 198 198 194 188 184 183 180 175 171 167 158 144 139
192 184 190 212 226 241 258 266 271 276 280 282 284 286 289 292 296 297 295 295 295 294 293 292 291 290 287 284 282 279 278 276 273 271 268 267 265 261 256 254 254 253 252 251 249 247 245 243 244 246 247 246 246 244 242 240 239 240 237 228 219 217 216 217 220 220 222 223 218 210 205 201 201 202 196 188 186 186 176 164 163 165 157 145 146
189 182 195 220 237 254 267 274 278 280 282 285 287 289 291 294 297 298 297 297 297 297 296 295 294 293 290 287 286 284 281 279 276 273 269 267 265 263 258 256 255 253 252 251 248 246 245 242 242 243 245 244 244 244 244 244 240 238 240 234 215 203 201 202 203 206 209 210 205 201 202 203 203 201 195 190 191 192 185 176 173 171 164 157 157
173 176 205 239 256 266 273 276 279 283 286 288 289 291 292 296 299 300 299 299 299 299 299 299 297 295 293 292 291 288 285 282 279 276 272 267 263 260 258 257 255 254 253 251 248 246 244 242 240 241 243 244 244 242 243 248 245 238 237 231 204 190 194 194 193 192 191 191 190 188 190 192 193 193 191 190 192 192 192 188 181 175 169 162 157
156 177 223 249 260 265 269 274 278 282 286 289 290 291 294 298 302 304 303 301 302 302 302 301 299 298 297 296 295 292 288 285 282 278 273 269 264 260 257 255 254 253 252 249 247 245 243 242 240 240 240 242 244 242 240 246 250 244 236 223 197 183 188 189 189 190 186 184 184 182 178 178 181 181 181 182 183 185 190 192 186 181 176 169 168
155 182 221 250 263 269 274 279 282 284 286 288 291 294 297 301 305 308 306 304 304 304 304 303 301 299 299 299 297 294 289 285 282 278 274 271 269 265 260 256 253 251 248 245 244 243 241 240 239 239 238 240 243 243 240 241 248 251 242 224 200 187 185 183 184 186 184 179 176 171 167 168 170 171 171 173 177 181 186 189 185 183 180 177 178
165 179 223 255 269 275 279 283 284 286 288 289 292 297 302 306 307 308 308 307 306 307 306 304 303 301 301 300 297 295 293 288 284 280 276 274 272 269 263 259 256 249 242 240 241 240 240 240 240 240 238 237 240 242 241 239 243 251 247 226 202 192 187 182 180 178 176 173 168 162 160 160 161 164 166 169 174 179 182 181 180 181 184 183 183
161 178 235 263 271 273 280 287 288 289 292 293 297 301 306 312 311 308 307 307 307 308 308 306 305 304 303 302 298 296 297 294 289 285 281 277 276 272 266 262 258 248 237 235 238 239 239 239 240 241 238 235 235 237 238 237 239 245 241 217 195 188 183 177 175 172 168 166 162 157 156 157 157 159 162 163 168 172 170 171 175 178 178 178 182
149 183 247 270 280 283 291 297 296 296 298 298 299 304 308 311 311 310 310 307 305 307 308 308 309 307 304 302 298 297 300 300 295 290 285 280 278 274 268 262 258 248 237 232 234 237 239 238 237 239 239 236 233 232 231 232 233 234 226 203 186 180 177 172 170 167 162 159 157 154 153 154 153 154 157 156 157 158 158 160 164 163 162 164 171
152 208 279 298 304 303 306 306 303 304 303 300 302 307 308 309 313 316 314 308 304 305 308 310 310 307 304 301 300 301 304 303 299 295 291 286 281 277 273 266 257 247 237 230 229 233 236 238 239 239 237 234 231 226 224 223 221 217 207 190 179 175 173 170 166 163 158 155 155 152 150 150 150 150 151 150 149 149 149 149 146 142 141 143 146
160 193 334 332 329 323 319 316 312 310 304 299 304 311 310 311 318 321 319 313 307 304 306 309 310 308 307 304 303 305 306 304 301 299 297 295 289 286 285 279 262 245 234 229 228 230 233 239 245 244 234 229 225 219 214 210 206 201 194 183 174 172 172 169 164 160 156 153 154 151 148 149 148 146 146 146 145 145 145 142 136 132 133 133 131
143 97 13 348 349 342 331 322 316 312 310 305 307 312 310 312 320 323 322 319 314 310 308 308 310 312 313 310 307 307 307 305 303 304 304 302 298 295 297 297 273 242 229 226 226 228 233 240 244 238 224 216 213 207 200 194 189 185 182 177 173 173 174 172 168 164 158 153 151 149 147 147 146 145 147 147 144 142 144 141 135 132 134 135 132
117 83 43 18 9 351 335 327 321 318 318 315 310 310 313 315 318 319 319 320 319 316 313 309 307 312 316 316 313 311 310 309 309 309 308 306 302 299 301 307 287 237 221 219 219 222 228 229 222 208 194 186 181 179 178 175 172 170 168 169 170 171 171 169 166 162 157 152 147 145 145 146 146 147 148 146 142 140 141 140 135 134 137 138 135
123 80 52 38 19 354 333 331 333 330 326 321 316 313 316 317 314 313 317 322 322 320 317 312 311 314 317 320 319 314 313 315 317 316 313 307 303 300 298 302 294 239 213 207 203 203 202 195 182 171 167 162 157 155 155 155 156 157 158 161 162 161 160 158 154 151 151 149 146 145 146 146 146 147 146 141 138 139 141 140 137 138 142 141 138
137 79 40 38 20 355 334 330 334 334 330 327 324 318 315 318 328 336 335 331 327 326 324 321 323 325 324 326 327 322 318 321 324 324 320 312 308 304 293 290 291 241 200 190 183 178 174 168 162 158 156 154 151 149 148 147 147 146 147 151 154 154 154 154 151 150 151 149 147 147 148 146 147 148 144 138 137 140 141 139 138 141 147 146 140
123 48 23 24 9 341 331 331 334 334 332 332 329 323 319 324 336 344 343 337 332 331 330 329 334 337 337 337 339 335 331 333 336 337 334 327 319 309 294 285 276 208 181 174 168 164 161 158 155 156 156 156 155 153 150 149 147 143 141 144 148 150 150 149 149 150 150 148 147 147 147 147 149 148 143 137 136 138 136 135 138 146 151 146 139
65 25 16 1 334 323 329 333 336 335 334 335 332 327 325 326 330 337 342 340 335 333 332 335 340 346 347 347 348 347 345 346 347 348 352 354 348 336 314 253 175 167 170 168 160 157 158 157 156 157 158 158 157 154 152 152 150 146 143 142 143 147 150 149 150 150 148 146 146 146 146 148 148 145 140 136 135 133 132 135 143 148 146 140 136
46 25 12 345 327 327 333 335 338 339 339 338 335 334 334 330 331 337 341 340 337 336 337 340 345 350 354 354 355 355 355 356 356 355 359 8 16 29 58 100 130 141 147 148 147 152 157 156 157 160 160 158 156 153 153 153 153 149 147 145 145 148 149 149 149 148 146 146 146 145 146 148 146 141 137 134 130 128 130 136 142 143 139 136 135
95 60 30 358 335 325 331 337 339 340 342 340 336 338 339 333 331 337 343 345 342 339 340 345 351 355 357 358 360 1 2 6 9 6 5 13 22 35 54 67 82 92 88 86 111 143 155 156 159 162 161 158 156 152 150 151 150 148 145 143 144 145 145 145 145 145 144 144 144 144 147 148 145 139 135 130 126 125 129 137 142 142 139 136 134
150 128 31 344 326 324 331 335 335 341 347 345 340 342 344 337 332 338 350 357 349 340 338 345 351 355 359 1 3 4 5 11 18 19 20 23 28 41 50 47 44 48 55 62 70 97 136 151 159 161 157 154 152 150 147 146 146 144 141 139 139 140 141 142 142 142 142 141 140 143 148 149 144 138 133 127 126 128 134 140 145 144 139 134 131
234 244 272 303 316 326 329 327 329 340 342 334 333 343 347 342 336 340 352 2 355 345 341 343 347 354 1 5 6 5 8 14 21 26 29 32 40 49 49 43 40 41 47 55 68 84 102 120 135 141 142 142 143 142 141 140 140 141 139 138 138 138 139 139 139 138 138 137 137 142 147 146 140 135 129 125 127 131 136 140 141 139 136 133 130
264 283 309 326 331 329 325 325 333 338 328 318 328 344 350 346 343 344 350 358 359 353 348 345 346 353 0 4 4 5 8 14 22 29 32 34 39 47 49 48 50 50 49 54 66 77 87 101 115 123 127 132 134 134 134 135 136 136 136 135 135 136 137 137 136 136 136 135 137 140 140 137 135 132 126 124 126 129 133 136 136 134 133 131 128
274 288 313 336 338 325 321 327 333 333 328 329 338 347 349 347 346 349 353 359 4 0 356 353 352 354 357 359 2 4 8 13 19 25 29 32 36 41 44 47 51 54 55 58 65 74 82 91 102 111 116 122 126 127 129 132 132 133 134 133 132 133 133 133 133 134 134 134 134 134 131 130 130 129 125 124 125 127 130 134 133 130 129 127 124
284 263 252 289 320 319 317 319 319 323 334 341 343 347 352 351 348 351 358 2 4 6 4 1 359 356 356 359 3 6 10 14 16 18 23 30 36 40 42 46 49 52 57 62 65 72 80 89 98 104 108 113 118 122 126 129 130 132 132 131 130 129 129 129 130 131 131 130 128 127 126 127 128 127 125 125 126 128 130 132 131 128 126 122 120
310 284 235 241 307 312 311 309 310 322 338 342 341 349 357 354 349 354 2 3 4 10 12 8 4 3 3 4 7 11 13 15 18 19 23 29 33 37 41 46 50 54 59 64 68 73 80 88 95 99 103 108 114 117 121 124 125 126 128 128 128 127 127 128 130 131 131 129 127 126 126 126 126 125 123 124 127 129 129 129 127 124 120 118 118
288 285 266 282 311 307 306 307 314 325 335 336 341 352 355 351 349 356 5 7 5 9 17 12 7 8 11 13 15 17 17 18 21 25 27 30 34 39 45 49 54 60 64 66 70 79 85 89 93 97 102 108 112 115 118 120 121 122 124 125 125 125 126 127 130 131 130 128 126 126 125 125 124 122 121 124 126 126 125 123 121 119 119 120 121
281 287 294 310 314 308 308 312 317 323 330 342 356 356 350 348 353 358 6 11 10 9 14 12 4 6 10 14 18 21 21 20 23 28 31 33 37 43 50 56 62 69 74 76 79 85 89 88 89 93 99 105 109 112 115 118 120 121 122 123 122 122 124 126 128 128 126 124 123 123 123 124 124 122 122 124 125 124 122 122 120 120 121 122 121
306 297 295 295 294 299 311 317 317 321 330 345 353 345 344 355 3 3 5 12 14 13 15 13 3 3 7 11 16 21 23 22 22 26 30 35 40 45 52 61 69 76 80 82 86 90 92 91 90 91 95 99 104 109 114 118 120 120 119 118 118 119 121 123 124 124 122 120 120 122 123 124 123 123 123 124 124 123 123 122 121 121 122 120 118
313 305 299 296 298 308 316 314 311 316 326 327 321 328 348 7 15 12 8 9 13 17 20 18 13 11 11 10 12 16 19 22 24 25 28 34 41 47 54 63 71 77 80 81 86 91 94 95 95 95 94 96 100 106 111 115 117 118 117 117 117 118 118 119 120 120 120 120 120 122 123 123 122 122 123 124 125 124 123 122 122 121 120 119 117
351 340 320 315 319 316 304 297 298 310 325 323 324 345 8 18 20 18 12 8 10 18 25 25 23 20 18 17 15 13 15 23 29 32 33 36 42 51 60 67 72 77 81 84 87 90 92 94 96 97 98 100 102 106 109 111 112 115 116 116 117 117 117 118 119 120 121 122 122 123 123 122 121 122 122 123 124 124 122 123 124 122 121 120 119
12 9 355 335 324 303 292 297 306 320 339 344 344 358 14 18 16 16 16 13 16 22 27 29 30 30 27 26 26 22 21 25 30 34 38 42 46 53 64 72 76 81 85 89 92 93 93 94 96 98 101 105 108 111 112 113 114 116 116 117 118 119 120 120 121 121 123 124 123 122 122 120 120 121 122 123 124 124 124 124 123 121 120 122 121
15 17 17 13 2 335 320 322 318 320 344 4 3 3 13 19 19 21 30 34 32 31 31 30 32 36 36 33 34 36 36 35 33 35 39 44 47 52 62 72 78 83 88 93 97 98 99 99 100 102 105 109 113 115 117 119 120 120 120 120 122 124 125 124 122 122 124 125 125 124 123 122 122 124 125 125 125 125 124 123 122 120 120 121 121
18 19 19 17 15 9 0 355 340 326 358 20 16 8 13 20 21 23 29 35 35 34 34 33 34 39 41 39 40 44 45 45 48 49 47 45 46 51 60 69 77 84 89 94 99 102 104 105 106 108 110 113 115 116 118 119 120 121 122 124 127 128 128 127 124 122 124 128 128 127 126 127 128 130 129 128 127 126 124 122 121 119 120 120 119
24 23 20 17 18 18 13 5 1 4 15 23 26 19 14 17 22 24 25 29 33 34 33 34 35 37 37 39 42 46 48 47 51 59 64 62 57 54 56 64 74 82 86 91 97 104 108 110 112 113 115 117 118 118 120 121 123 125 127 128 128 127 126 125 123 125 129 131 129 128 129 131 132 132 131 129 127 126 124 123 121 120 118 118 118
29 27 24 22 20 20 18 15 13 13 11 12 19 19 8 7 16 21 18 19 24 27 28 32 35 36 36 38 40 43 47 49 49 55 65 75 76 69 62 62 69 77 83 88 93 99 106 113 119 122 124 125 125 125 126 126 126 127 127 126 124 127 133 135 135 134 134 133 131 131 132 132 131 130 130 129 128 127 124 122 122 120 118 118 120
28 25 25 25 23 22 23 22 19 18 15 14 18 19 9 5 10 13 10 8 11 12 14 20 25 28 32 37 38 37 40 46 51 56 62 71 82 86 82 77 77 80 85 91 95 97 101 108 116 122 128 131 132 131 128 124 120 119 119 122 133 148 154 153 149 141 136 135 136 135 134 132 131 130 130 129 127 126 124 122 121 120 119 119 122